QZS-4 (MICHIBIKI-4)

Last updated on Thu Oct 16 2025 00:02:49 GMT+0000 (Coordinated Universal Time)

1 42965U 17062A 25288.53988375 -.00000344 00000+0 00000+0 0 9995 2 42965 40.2591 346.6177 0751511 270.1605 101.2300 1.00269717 29353
UTC large
Height (km)
Speed (km/s)
/
Latitude / Longitude
Inclination (degrees)
Orbital Period (minutes)
Azimuth
Elevation
Range (km)
Doppler Factor

Next 0 passes for location: London (51.5072 / 0.1276)

Sorry there are no passes over London.